STARLINK-35412

Last updated on Mon Oct 20 2025 00:02:07 GMT+0000 (Coordinated Universal Time)

1 65797U 25218G 25292.26432397 .00093941 00000+0 17061-2 0 9990 2 65797 97.6023 152.8375 0001551 89.5842 270.5586 15.49227238 3641
UTC large
Height (km)
Speed (km/s)
/
Latitude / Longitude
Inclination (degrees)
Orbital Period (minutes)
Azimuth
Elevation
Range (km)
Doppler Factor

Next 0 passes for location: London (51.5072 / 0.1276)

Sorry there are no passes over London.